Temperature
-2 -2 -2 -2 -2 -2 -2 -1 -1 -1 -1 -1 -1 -1 -1 -0 -0 -0 0 0 0 1 1 1 1 1 2 2 2 2 3 3 3 3 3 3 3 4 4 4 4 4 5
-2 -2 -2 -2 -2 -2 -2 -2 -2 -2 -2 -2 -2 -2 -1 -1 -1 -1 -0 -0 -0 0 0 0 1 1 1 2 2 2 2 2 2 2 3 2 3 3 3 3 4 4 4
-3 -3 -3 -3 -3 -3 -3 -3 -3 -3 -2 -2 -2 -2 -2 -2 -1 -1 -1 -1 -1 -0 -0 -0 0 0 0 1 1 2 2 2 2 2 2 2 2 2 3 3 3 3 3
-3 -3 -3 -3 -4 -4 -4 -3 -3 -3 -3 -3 -3 -3 -3 -2 -2 -2 -2 -2 -1 -1 -1 -1 -1 -0 -0 0 1 1 1 1 1 1 2 2 2 2 2 2 2 3 3
-4 -4 -4 -4 -4 -4 -4 -4 -4 -4 -4 -4 -4 -3 -3 -3 -3 -3 -3 -2 -2 -2 -2 -1 -1 -1 -1 -0 -0 0 1 1 1 1 1 1 1 1 1 1 2 2 2
-4 -5 -5 -5 -5 -5 -5 -5 -5 -4 -4 -4 -4 -4 -4 -4 -3 -3 -3 -3 -3 -2 -2 -2 -2 -1 -1 -1 -0 -0 0 0 0 1 1 1 1 1 1 1 1 1 1
-5 -5 -5 -5 -5 -5 -5 -5 -5 -5 -5 -5 -5 -5 -4 -4 -4 -4 -4 -4 -3 -3 -3 -2 -2 -2 -1 -1 -1 -1 -0 -0 -0 0 0 0 1 1 1 1 1 1 1
-6 -6 -6 -6 -6 -6 -6 -6 -6 -6 -6 -6 -5 -5 -5 -4 -4 -4 -4 -4 -4 -3 -3 -3 -2 -2 -2 -2 -1 -1 -1 -1 -1 -0 -0 0 0 0 0 0 0 0 0
-6 -6 -6 -7 -7 -7 -7 -6 -6 -6 -6 -6 -6 -6 -6 -5 -5 -5 -5 -5 -4 -4 -4 -3 -3 -3 -2 -2 -2 -2 -2 -1 -1 -1 -1 -1 -0 -0 -0 -0 -0 -1 -1
-7 -7 -7 -7 -7 -7 -7 -7 -7 -7 -7 -7 -6 -6 -6 -6 -5 -6 -6 -5 -5 -4 -4 -4 -4 -4 -3 -3 -3 -3 -2 -2 -2 -1 -1 -1 -1 -1 -1 -1 -1 -1 -1
-7 -7 -8 -8 -8 -8 -8 -8 -8 -8 -7 -7 -7 -7 -6 -6 -6 -6 -6 -6 -6 -5 -5 -4 -4 -4 -4 -4 -3 -3 -3 -3 -2 -2 -2 -2 -2 -1 -1 -1 -1 -1 -1
-8 -8 -8 -8 -8 -8 -8 -8 -8 -8 -8 -8 -8 -7 -7 -7 -7 -6 -6 -6 -6 -6 -5 -5 -5 -4 -4 -4 -4 -4 -3 -3 -3 -3 -3 -2 -2 -2 -2 -2 -2 -2 -2
-8 -8 -8 -8 -8 -9 -9 -9 -9 -9 -9 -8 -8 -8 -8 -7 -7 -7 -7 -7 -6 -6 -6 -6 -5 -5 -5 -5 -4 -4 -4 -4 -4 -3 -3 -3 -3 -3 -2 -2 -2 -2 -2
-9 -9 -9 -9 -9 -9 -9 -9 -9 -9 -9 -9 -9 -9 -9 -8 -8 -7 -7 -7 -7 -7 -6 -6 -6 -6 -6 -5 -5 -5 -4 -4 -4 -4 -4 -3 -3 -3 -3 -3 -3 -3 -3
-9 -9 -9 -9 -9 -9 -9 -9 -9 -9 -9 -9 -9 -9 -9 -9 -8 -8 -8 -7 -7 -7 -7 -7 -7 -6 -6 -6 -6 -5 -5 -5 -5 -4 -4 -4 -4 -4 -4 -4 -4 -3 -3
-9 -9 -9 -9 -9 -9 -9 -9 -9 -9 -9 -9 -9 -10 -9 -9 -9 -8 -8 -8 -8 -8 -8 -7 -7 -7 -7 -7 -7 -6 -6 -6 -5 -5 -5 -5 -4 -4 -4 -4 -4 -4 -4
-10 -10 -10 -10 -10 -10 -10 -10 -10 -9 -9 -9 -9 -9 -9 -9 -9 -9 -9 -8 -8 -8 -8 -8 -8 -8 -7 -7 -7 -7 -6 -6 -6 -6 -5 -5 -5 -5 -5 -5 -5 -5 -4
-10 -10 -10 -10 -10 -10 -10 -10 -10 -10 -10 -10 -10 -10 -10 -10 -10 -9 -9 -9 -9 -9 -9 -9 -8 -8 -8 -8 -7 -7 -7 -7 -6 -6 -6 -6 -5 -5 -5 -5 -5 -5 -5
-11 -11 -11 -11 -11 -11 -11 -11 -11 -11 -11 -11 -10 -10 -10 -10 -10 -10 -10 -10 -10 -9 -9 -9 -9 -9 -8 -8 -8 -7 -7 -7 -7 -7 -6 -6 -6 -6 -6 -6 -6 -6 -6
-11 -11 -11 -11 -11 -11 -11 -11 -11 -11 -11 -11 -11 -11 -11 -11 -10 -10 -10 -10 -10 -10 -10 -9 -9 -9 -9 -8 -8 -8 -8 -7 -7 -7 -7 -7 -6 -6 -6 -6 -6 -6 -6
-11 -11 -11 -11 -11 -11 -11 -11 -12 -12 -12 -12 -11 -11 -11 -11 -11 -11 -11 -10 -10 -10 -10 -10 -10 -9 -9 -9 -8 -8 -8 -8 -7 -7 -7 -7 -7 -7 -7 -7 -7 -7 -7
-12 -12 -12 -12 -12 -12 -12 -12 -12 -12 -12 -12 -12 -11 -12 -12 -11 -11 -11 -11 -11 -11 -10 -10 -10 -9 -9 -9 -9 -8 -8 -8 -8 -8 -7 -7 -7 -7 -7 -7 -7 -7 -7
-12 -12 -12 -12 -12 -12 -12 -12 -12 -12 -12 -12 -12 -12 -12 -12 -12 -12 -11 -11 -11 -11 -11 -11 -10 -10 -10 -9 -9 -9 -9 -8 -8 -8 -8 -8 -8 -8 -8 -8 -7 -7 -7
-12 -12 -12 -12 -12 -12 -12 -12 -12 -12 -12 -12 -12 -12 -12 -12 -12 -12 -12 -11 -11 -11 -11 -11 -10 -10 -10 -10 -9 -9 -9 -9 -8 -8 -8 -8 -8 -8 -8 -8 -8 -8 -8
-13 -13 -13 -13 -13 -13 -13 -13 -13 -13 -13 -13 -13 -13 -13 -13 -12 -12 -12 -12 -12 -11 -11 -11 -11 -10 -10 -10 -10 -9 -9 -9 -9 -8 -8 -8 -8 -8 -8 -8 -8 -8 -8
-13 -13 -13 -13 -13 -13 -13 -13 -13 -13 -13 -13 -13 -13 -13 -13 -12 -12 -12 -12 -12 -11 -11 -11 -11 -10 -10 -10 -10 -9 -9 -9 -9 -9 -9 -8 -9 -9 -8 -8 -8 -8 -8
Wind_Speed
5 5 6 6 6 6 6 7 7 7 8 7 7 6 6 6 5 5 5 5 5 5 4 5 5 5 4 4 4 4 4 4 4 3 2 2 2 3 3 3 4 4 5
5 5 6 6 6 6 7 8 7 7 8 7 7 6 6 6 6 5 6 5 5 5 5 5 5 4 5 4 4 5 4 4 4 5 3 2 3 4 3 3 2 3 4
5 6 6 7 7 7 8 8 8 7 7 7 6 6 6 6 6 6 5 5 6 5 5 5 5 5 6 4 5 5 4 4 4 5 4 3 2 2 2 2 1 2 3
6 6 7 7 7 7 8 8 8 7 7 7 7 6 6 7 7 6 5 5 5 5 5 5 5 6 6 6 5 5 4 4 4 5 4 3 3 2 3 3 2 2 2
6 7 7 7 7 7 7 7 7 7 7 7 7 6 6 6 6 6 6 5 4 5 5 5 5 6 7 6 5 5 5 5 5 5 5 4 4 4 4 3 3 2 2
6 7 7 7 8 8 7 7 7 7 7 7 6 6 6 6 10 11 8 5 4 5 5 5 5 6 7 9 9 8 8 7 7 6 5 7 7 6 4 5 4 3 3
7 7 7 7 8 8 8 8 7 7 7 7 7 6 7 8 11 11 11 6 5 4 5 5 5 5 6 6 7 9 9 11 10 8 8 8 7 7 7 7 6 5 5
7 7 7 8 8 8 8 8 7 6 6 6 7 7 7 8 11 11 10 6 5 5 5 5 5 5 6 6 5 5 6 7 8 7 7 8 7 7 7 7 6 3 1
7 8 8 8 8 8 8 8 7 6 6 6 6 6 6 8 11 11 10 5 5 5 5 5 5 5 8 8 6 6 6 6 7 8 8 8 9 10 8 5 5 4 3
8 8 8 8 8 8 8 7 6 6 7 7 7 6 6 7 10 10 9 4 5 5 4 5 6 7 8 8 5 5 6 6 4 3 4 5 6 8 10 9 7 6 3
8 8 8 8 8 8 7 6 6 6 6 6 7 6 6 7 9 10 9 5 4 5 5 4 5 8 9 9 8 6 7 6 4 4 3 3 3 4 5 6 6 6 5
8 8 8 8 7 7 7 6 6 6 6 5 6 6 5 6 8 9 10 9 7 5 5 5 5 9 9 9 7 7 7 5 3 3 3 3 3 3 3 3 4 3 4
8 8 8 8 7 7 6 7 6 5 5 5 5 6 6 5 6 10 10 10 9 6 5 8 8 8 7 5 5 6 4 3 3 3 4 3 3 3 2 2 2 2 1
8 8 8 7 7 7 6 6 5 5 5 6 6 6 6 6 5 5 5 6 7 6 6 6 6 5 4 4 4 3 2 3 3 3 3 2 2 2 2 3 2 2 1
8 7 7 7 7 6 6 5 6 5 6 7 5 5 6 6 8 10 7 5 4 4 4 2 2 2 2 2 2 2 1 1 2 2 3 3 3 2 2 2 2 2 2
7 7 6 6 6 6 6 7 9 9 12 12 10 9 8 9 11 10 9 8 8 6 3 2 2 2 3 3 3 2 2 2 2 2 3 3 3 3 3 2 2 3 3
6 7 6 6 6 6 6 6 7 9 10 10 11 11 10 10 10 9 8 8 6 4 2 2 3 3 3 2 2 2 2 2 2 2 3 3 3 3 3 3 3 3 3
7 8 7 6 6 6 6 6 6 7 7 7 8 11 11 10 10 9 8 6 4 3 2 2 3 3 3 3 3 3 2 2 2 2 3 3 3 3 3 4 3 3 3
6 5 5 5 5 5 5 6 5 6 6 7 6 7 10 10 9 8 7 3 3 3 3 3 3 3 3 3 3 3 3 3 3 3 3 3 4 4 4 4 4 5 4
5 9 8 5 5 5 5 5 5 6 6 6 6 6 6 6 5 5 4 3 3 4 4 3 3 4 3 3 3 3 3 3 3 3 3 3 3 4 5 5 5 5 4
5 7 9 7 5 5 5 5 5 5 6 6 6 7 9 5 5 5 4 4 4 4 4 4 4 4 4 3 3 4 4 4 3 3 3 3 4 4 4 4 5 5 4
5 5 5 5 5 5 5 5 5 6 6 7 6 7 10 6 5 5 5 5 4 4 4 4 4 4 4 4 4 4 4 4 4 4 4 4 4 4 4 4 4 4 4
5 5 5 5 5 7 6 5 5 5 6 6 6 6 6 5 5 5 6 5 5 5 5 5 4 4 5 5 5 4 5 5 5 5 5 5 5 5 5 5 6 5 5
4 5 5 5 5 5 5 6 6 6 6 6 6 6 6 6 6 6 6 6 5 5 5 5 5 6 8 6 6 6 7 7 7 7 7 6 6 5 5 5 5 6 6
4 4 5 5 5 5 5 6 6 6 6 6 6 6 6 6 6 6 6 6 6 6 7 7 6 6 7 8 8 7 8 8 8 8 7 6 6 6 6 6 5 5 5
4 5 5 5 5 5 5 5 6 6 6 6 6 6 6 6 6 6 6 6 6 6 7 7 7 8 9 9 9 9 9 9 8 8 7 5 5 5 6 5 6 6 6
Wind_Direction
326 323 322 319 318 317 314 310 308 310 310 307 301 296 292 285 278 263 259 264 265 266 262 255 252 249 241 231 226 226 221 210 229 246 241 241 222 212 225 221 225 228 223
314 316 315 315 317 317 313 312 310 310 312 309 308 304 299 293 282 264 261 261 258 260 262 259 261 255 243 236 228 227 226 218 215 228 236 236 237 213 198 207 224 223 228
313 316 316 316 315 311 310 313 313 310 311 312 309 303 302 299 294 278 263 261 256 253 252 253 256 255 242 241 234 230 232 229 213 211 224 231 242 214 198 216 216 220 236
314 313 313 310 306 304 305 309 311 310 309 310 305 301 301 299 297 292 278 269 266 261 256 251 249 249 246 235 234 230 228 221 210 204 209 212 222 215 190 200 229 232 240
311 311 309 307 305 305 307 308 311 310 308 304 302 302 302 300 296 300 291 276 269 270 265 257 254 255 260 250 241 230 223 219 214 209 210 212 212 201 205 199 212 227 259
309 308 311 311 311 309 307 307 310 309 306 303 300 299 298 298 299 300 303 284 273 269 268 265 263 257 261 257 254 248 234 224 218 217 219 214 213 208 204 194 191 204 244
310 310 312 312 312 309 308 308 305 305 303 301 297 294 292 293 299 299 297 297 279 275 272 265 267 266 269 259 254 253 247 242 232 221 218 217 211 204 199 201 201 210 230
312 311 311 311 309 309 307 304 301 300 298 295 295 293 293 296 301 300 299 295 280 270 266 261 260 263 262 261 253 251 248 247 243 236 227 223 217 203 203 206 203 213 224
313 311 310 309 309 310 309 308 305 305 301 295 297 296 295 300 304 304 304 292 286 278 271 269 264 260 263 263 257 252 256 258 256 247 241 232 225 217 204 187 185 192 224
311 308 307 305 305 304 302 303 304 304 300 302 303 300 293 294 299 302 302 291 290 288 281 272 270 271 273 270 263 250 251 256 248 250 237 228 217 213 210 203 196 204 213
308 307 308 307 302 298 299 301 303 302 302 301 301 301 295 295 300 302 302 296 282 285 284 280 273 276 277 273 270 259 254 254 237 226 222 208 199 201 205 210 205 204 212
308 307 306 306 305 308 304 301 301 300 299 299 301 304 301 298 301 300 302 298 296 285 282 278 273 277 278 277 272 263 261 243 216 210 211 209 206 209 206 197 208 215 220
311 308 305 305 306 308 303 300 301 298 297 301 301 303 306 307 302 301 299 296 293 292 282 284 282 280 283 281 274 271 258 223 205 213 215 220 215 196 170 156 143 132 98
308 307 307 305 305 306 304 301 298 296 295 298 299 300 302 302 298 294 292 291 290 290 289 285 284 284 288 290 288 282 258 224 212 216 215 203 177 176 179 174 180 171 182
307 306 308 309 305 303 303 297 297 286 287 297 294 294 297 296 298 299 300 292 287 287 311 309 297 293 289 290 289 283 267 233 219 204 197 193 191 187 195 185 186 189 211
310 311 308 307 306 308 308 309 305 305 307 305 303 302 298 300 307 305 302 303 300 299 310 301 288 275 273 271 274 272 265 258 238 214 204 195 195 194 196 195 194 196 199
302 305 306 308 308 308 309 310 313 318 318 318 318 315 313 315 316 317 319 315 310 311 299 286 282 271 271 273 271 267 261 258 242 221 213 201 194 192 193 201 203 199 203
305 305 308 303 302 302 304 303 304 309 316 317 319 321 322 322 323 324 327 332 325 323 309 293 288 284 278 273 271 273 266 253 238 227 217 203 196 194 196 202 202 201 202
310 308 304 302 302 302 303 303 302 304 306 311 316 320 324 325 325 326 329 327 315 309 305 299 292 288 281 272 269 266 262 255 245 235 224 211 202 195 199 203 205 211 213
310 315 318 312 311 311 309 308 306 306 307 310 312 315 322 324 325 324 323 317 309 304 302 298 297 293 286 277 270 263 257 251 246 241 233 218 209 204 204 205 205 208 215
310 313 317 315 310 308 307 306 307 307 306 307 308 312 319 321 318 315 314 309 304 302 301 298 293 289 282 273 264 257 253 249 243 237 234 225 214 212 213 209 208 210 206
312 312 312 308 305 305 307 306 306 305 306 306 309 313 317 317 311 308 307 306 304 301 300 296 293 290 280 269 262 256 250 245 240 233 231 227 221 216 212 211 209 206 201
311 312 312 313 310 313 314 312 309 308 309 310 312 314 317 316 312 309 307 308 308 307 307 300 292 291 291 279 265 251 246 243 239 231 227 225 220 217 214 214 209 205 206
314 314 314 315 315 314 313 311 308 306 307 308 308 309 309 309 309 309 310 310 309 306 306 303 295 292 294 289 277 266 259 256 250 239 230 222 219 218 216 214 211 209 210
325 319 316 314 313 311 309 310 311 311 309 307 306 306 307 306 306 306 306 308 308 305 304 302 295 293 291 288 284 277 275 273 265 251 234 220 214 211 210 210 209 208 210
325 320 316 314 310 309 308 307 308 309 308 307 305 303 302 301 302 303 304 305 306 305 305 302 298 295 294 289 286 285 282 278 273 266 247 217 209 211 205 207 205 207 206
Height
1507 1505 1502 1500 1497 1495 1492 1489 1487 1484 1482 1480 1478 1476 1475 1474 1474 1473 1474 1474 1474 1475 1475 1476 1478 1479 1480 1482 1484 1485 1486 1488 1488 1489 1491 1493 1494 1496 1497 1498 1499 1500 1502
1504 1501 1498 1496 1493 1490 1488 1485 1482 1480 1477 1475 1473 1471 1470 1469 1468 1468 1468 1468 1469 1469 1470 1471 1472 1474 1475 1476 1478 1479 1481 1482 1483 1483 1485 1488 1489 1491 1492 1493 1494 1496 1497
1500 1497 1494 1491 1489 1486 1483 1480 1478 1475 1472 1470 1468 1467 1465 1464 1464 1463 1463 1463 1463 1464 1464 1465 1467 1468 1469 1471 1472 1473 1475 1477 1478 1479 1480 1482 1483 1485 1487 1488 1489 1491 1492
1495 1493 1490 1487 1484 1481 1479 1476 1473 1470 1468 1466 1464 1462 1461 1460 1459 1458 1458 1458 1458 1458 1459 1460 1461 1462 1464 1465 1466 1468 1469 1471 1472 1473 1475 1476 1478 1480 1481 1483 1484 1486 1487
1491 1488 1485 1483 1480 1477 1474 1471 1469 1466 1464 1461 1459 1458 1456 1455 1454 1454 1454 1453 1453 1453 1453 1454 1456 1457 1458 1460 1461 1462 1463 1464 1466 1467 1469 1470 1472 1474 1476 1477 1479 1481 1482
1487 1484 1481 1478 1475 1472 1469 1467 1464 1461 1459 1457 1455 1453 1452 1451 1450 1449 1449 1448 1448 1448 1448 1449 1450 1451 1453 1454 1455 1457 1458 1459 1460 1461 1462 1464 1466 1468 1471 1472 1474 1476 1476
1483 1480 1477 1473 1470 1467 1465 1462 1459 1457 1454 1452 1450 1448 1447 1446 1446 1445 1445 1444 1443 1443 1443 1444 1444 1445 1447 1448 1449 1450 1451 1453 1455 1456 1456 1458 1460 1462 1465 1467 1468 1470 1471
1479 1475 1472 1469 1466 1463 1460 1457 1455 1452 1450 1448 1446 1444 1443 1442 1441 1441 1440 1440 1439 1439 1439 1439 1440 1440 1441 1443 1443 1444 1445 1446 1448 1450 1451 1452 1455 1457 1459 1461 1463 1465 1466
1474 1471 1468 1465 1461 1458 1456 1453 1450 1448 1445 1443 1442 1440 1438 1437 1437 1436 1436 1435 1434 1434 1434 1435 1435 1435 1436 1437 1438 1438 1439 1440 1442 1443 1445 1447 1449 1452 1454 1456 1458 1459 1460
1470 1467 1464 1461 1458 1454 1452 1449 1447 1444 1442 1439 1437 1436 1435 1433 1432 1432 1432 1431 1430 1430 1430 1430 1430 1430 1431 1431 1432 1432 1433 1434 1435 1437 1439 1441 1443 1445 1448 1450 1452 1454 1455
1467 1463 1460 1457 1454 1451 1448 1445 1443 1440 1438 1436 1434 1432 1431 1429 1428 1428 1427 1427 1426 1425 1425 1424 1425 1425 1426 1426 1427 1427 1427 1428 1429 1431 1432 1435 1437 1439 1441 1444 1446 1448 1450
1463 1459 1456 1453 1450 1447 1444 1442 1439 1437 1434 1432 1430 1428 1426 1425 1424 1423 1422 1422 1422 1421 1420 1420 1420 1420 1421 1421 1421 1421 1422 1423 1424 1425 1427 1429 1431 1433 1436 1438 1440 1442 1444
1459 1455 1452 1449 1446 1444 1441 1438 1435 1433 1431 1428 1426 1424 1422 1421 1420 1419 1418 1417 1417 1417 1416 1415 1415 1415 1415 1415 1416 1416 1416 1417 1418 1420 1421 1423 1426 1428 1430 1433 1435 1437 1439
1455 1452 1449 1446 1443 1440 1437 1435 1432 1430 1427 1425 1423 1421 1419 1417 1416 1414 1414 1413 1413 1412 1411 1411 1411 1410 1411 1410 1410 1411 1412 1413 1414 1415 1417 1419 1421 1423 1425 1427 1429 1431 1433
1452 1449 1446 1442 1439 1436 1434 1432 1429 1427 1425 1423 1420 1418 1416 1413 1412 1411 1410 1409 1409 1408 1407 1407 1406 1406 1406 1406 1406 1406 1407 1408 1409 1411 1413 1414 1416 1418 1420 1423 1424 1426 1427
1448 1445 1442 1439 1436 1433 1430 1428 1425 1424 1422 1420 1417 1416 1413 1411 1409 1408 1407 1406 1405 1405 1404 1403 1402 1402 1402 1402 1402 1403 1403 1404 1405 1407 1408 1410 1412 1414 1416 1418 1420 1422 1423
1445 1442 1439 1436 1433 1430 1427 1424 1421 1419 1418 1416 1414 1412 1410 1408 1406 1404 1403 1402 1402 1401 1400 1399 1399 1399 1399 1399 1399 1399 1400 1401 1402 1403 1404 1406 1408 1410 1412 1414 1416 1417 1418
1442 1439 1436 1433 1430 1428 1425 1422 1419 1416 1414 1411 1410 1408 1406 1404 1403 1401 1400 1399 1397 1397 1396 1396 1396 1396 1395 1395 1395 1396 1396 1397 1398 1399 1401 1402 1404 1406 1408 1409 1411 1412 1414
1438 1436 1433 1430 1428 1425 1423 1420 1417 1415 1412 1409 1407 1405 1404 1402 1400 1399 1397 1396 1394 1393 1393 1392 1392 1392 1392 1392 1392 1392 1393 1393 1394 1395 1397 1398 1400 1401 1403 1404 1406 1408 1409
1435 1433 1430 1428 1425 1422 1420 1417 1415 1412 1410 1407 1405 1403 1401 1399 1397 1395 1394 1393 1391 1390 1390 1389 1389 1389 1389 1389 1388 1389 1389 1390 1390 1391 1393 1394 1396 1397 1399 1400 1402 1403 1405
1433 1430 1428 1425 1422 1420 1417 1415 1412 1410 1408 1405 1403 1401 1400 1397 1395 1393 1392 1391 1389 1388 1387 1387 1386 1386 1386 1386 1385 1385 1386 1386 1386 1387 1389 1390 1391 1393 1394 1396 1398 1399 1400
1430 1427 1425 1422 1420 1417 1415 1413 1410 1408 1405 1403 1401 1399 1397 1395 1393 1392 1390 1389 1387 1386 1385 1384 1383 1383 1382 1382 1382 1382 1382 1382 1382 1384 1385 1386 1387 1389 1390 1391 1393 1394 1396
1428 1425 1422 1420 1418 1415 1413 1410 1408 1405 1403 1401 1399 1397 1395 1393 1391 1389 1388 1386 1384 1383 1382 1381 1380 1379 1379 1378 1378 1378 1378 1378 1379 1380 1381 1382 1383 1384 1386 1387 1388 1390 1391
1425 1423 1420 1417 1415 1412 1410 1408 1405 1403 1401 1399 1396 1394 1392 1390 1389 1387 1385 1383 1382 1380 1379 1378 1377 1376 1375 1374 1374 1374 1374 1374 1375 1376 1377 1378 1379 1380 1381 1383 1384 1385 1387
1423 1420 1418 1415 1412 1410 1407 1405 1403 1401 1398 1396 1394 1392 1390 1388 1386 1384 1382 1380 1379 1377 1376 1374 1373 1372 1371 1371 1370 1370 1370 1370 1371 1372 1372 1373 1374 1376 1377 1378 1380 1381 1382
1421 1418 1415 1413 1410 1407 1405 1402 1400 1398 1396 1393 1391 1389 1387 1385 1383 1381 1379 1377 1376 1374 1372 1371 1370 1369 1368 1367 1367 1366 1366 1366 1367 1368 1369 1369 1370 1371 1372 1374 1375 1377 1378